AAL6432 KPHX-KFAT

Flight info

Callsign AAL6432
Flight time 1h 19m
Altitude 32000
Route KEENS3 HRRBR CURIV J212 DECAS PMD J65 LANDO TTE ALTTA9
Aircraft B738/M-SDE2E3FGHIRWXY/LB1

Departure

Time 2026-04-18 06:31
Airport Phoenix Sky Harbor International Airport (KPHX)

Arrival

Time 2026-04-18 07:50
Airport Fresno Yosemite International Airport (KFAT)
Time Latitude Longitude Altitude Speed Heading
2026-04-18 06:23 33.43739 -112.00068 1123 ft 0 kts 353°
2026-04-18 06:25 33.43754 -112.00070 1114 ft 5 kts 353°
2026-04-18 06:25 33.43799 -112.00072 1118 ft 8 kts
2026-04-18 06:25 33.43856 -112.00074 1118 ft 9 kts
2026-04-18 06:25 33.43901 -112.00022 1123 ft 11 kts 83°
2026-04-18 06:26 33.43904 -111.99926 1123 ft 12 kts 90°
2026-04-18 06:26 33.43904 -111.99820 1123 ft 13 kts 90°
2026-04-18 06:26 33.43904 -111.99705 1123 ft 14 kts 90°
2026-04-18 06:26 33.43904 -111.99586 1123 ft 15 kts 90°
2026-04-18 06:27 33.43905 -111.99458 1123 ft 16 kts 90°
2026-04-18 06:27 33.43896 -111.99326 1123 ft 15 kts 118°
2026-04-18 06:27 33.43814 -111.99248 1118 ft 16 kts 154°
2026-04-18 06:27 33.43711 -111.99223 1117 ft 16 kts 176°
2026-04-18 06:28 33.43598 -111.99224 1120 ft 16 kts 182°
2026-04-18 06:28 33.43476 -111.99227 1112 ft 7 kts 185°
2026-04-18 06:28 33.43433 -111.99240 1118 ft 8 kts 193°
2026-04-18 06:28 33.43373 -111.99247 1117 ft 10 kts 181°
2026-04-18 06:29 33.43292 -111.99248 1121 ft 13 kts 182°
2026-04-18 06:29 33.43204 -111.99282 1121 ft 15 kts 212°
2026-04-18 06:29 33.43122 -111.99362 1117 ft 15 kts 234°
2026-04-18 06:29 33.43104 -111.99424 1122 ft 1 kts 264°
2026-04-18 06:30 33.43104 -111.99445 1122 ft 5 kts 267°
2026-04-18 06:30 33.43100 -111.99606 1123 ft 49 kts 269°
2026-04-18 06:30 33.43104 -112.00339 1124 ft 124 kts 269°
2026-04-18 06:30 33.43132 -112.01634 1190 ft 180 kts 271°
2026-04-18 06:31 33.43097 -112.03126 2129 ft 176 kts 268°
2026-04-18 06:31 33.43049 -112.04673 2731 ft 200 kts 270°
2026-04-18 06:31 33.42994 -112.06450 2942 ft 226 kts 266°
2026-04-18 06:31 33.42568 -112.08314 3275 ft 241 kts 250°
2026-04-18 06:32 33.41936 -112.10281 3504 ft 261 kts 251°
2026-04-18 06:32 33.41307 -112.12305 4101 ft 267 kts 251°
2026-04-18 06:32 33.40657 -112.14423 5018 ft 265 kts 250°
2026-04-18 06:32 33.40017 -112.16525 5667 ft 273 kts 250°
2026-04-18 06:33 33.39379 -112.18652 6341 ft 278 kts 253°
2026-04-18 06:33 33.39210 -112.20952 7033 ft 280 kts 278°
2026-04-18 06:33 33.39532 -112.23215 7850 ft 279 kts 280°
2026-04-18 06:33 33.39888 -112.25531 8586 ft 282 kts 280°
2026-04-18 06:34 33.40244 -112.27848 9324 ft 284 kts 280°
2026-04-18 06:34 33.40601 -112.30190 10040 ft 287 kts 279°
2026-04-18 06:34 33.40963 -112.32583 10442 ft 302 kts 280°
2026-04-18 06:34 33.41347 -112.35149 10600 ft 324 kts 280°
2026-04-18 06:35 33.41712 -112.37605 10788 ft 340 kts 280°
2026-04-18 06:35 33.42125 -112.40396 11244 ft 349 kts 280°
2026-04-18 06:35 33.42554 -112.43299 11883 ft 351 kts 280°
2026-04-18 06:35 33.42980 -112.46194 12551 ft 353 kts 280°
2026-04-18 06:36 33.43407 -112.49099 13225 ft 355 kts 281°
2026-04-18 06:36 33.43837 -112.52024 13887 ft 358 kts 281°
2026-04-18 06:36 33.44268 -112.54963 14477 ft 360 kts 281°
2026-04-18 06:36 33.44699 -112.57905 15051 ft 363 kts 281°
2026-04-18 06:37 33.45104 -112.60925 15636 ft 365 kts 276°
2026-04-18 06:37 33.45225 -112.63917 16204 ft 368 kts 271°
2026-04-18 06:37 33.45213 -112.67053 16792 ft 371 kts 270°
2026-04-18 06:37 33.45191 -112.70153 17348 ft 374 kts 271°
2026-04-18 06:38 33.45199 -112.73278 17912 ft 376 kts 271°
2026-04-18 06:38 33.45230 -112.76409 18431 ft 379 kts 272°
2026-04-18 06:38 33.45277 -112.79588 18894 ft 382 kts 274°
2026-04-18 06:38 33.45621 -112.82678 19320 ft 384 kts 282°
2026-04-18 06:39 33.46221 -112.85871 19774 ft 387 kts 284°
2026-04-18 06:39 33.46857 -112.89022 20257 ft 389 kts 284°
2026-04-18 06:39 33.47492 -112.92172 20710 ft 392 kts 284°
2026-04-18 06:39 33.48123 -112.95368 21133 ft 395 kts 284°
2026-04-18 06:40 33.48737 -112.98548 21555 ft 398 kts 283°
2026-04-18 06:40 33.49352 -113.01789 21977 ft 401 kts 283°
2026-04-18 06:40 33.49973 -113.05100 22390 ft 404 kts 283°
2026-04-18 06:40 33.50587 -113.08394 22795 ft 407 kts 283°
2026-04-18 06:41 33.51193 -113.11666 23205 ft 409 kts 283°
2026-04-18 06:41 33.51812 -113.15010 23603 ft 412 kts 283°
2026-04-18 06:41 33.52433 -113.18378 23954 ft 414 kts 283°
2026-04-18 06:41 33.53054 -113.21749 24330 ft 415 kts 283°
2026-04-18 06:42 33.53676 -113.25126 24716 ft 416 kts 283°
2026-04-18 06:42 33.54297 -113.28510 25081 ft 417 kts 283°
2026-04-18 06:42 33.54923 -113.31922 25430 ft 419 kts 283°
2026-04-18 06:42 33.55551 -113.35351 25749 ft 421 kts 283°
2026-04-18 06:43 33.56179 -113.38785 26093 ft 422 kts 283°
2026-04-18 06:43 33.56807 -113.42229 26426 ft 424 kts 283°
2026-04-18 06:43 33.57437 -113.45683 26746 ft 425 kts 283°
2026-04-18 06:43 33.58068 -113.49150 27047 ft 427 kts 283°
2026-04-18 06:44 33.58703 -113.52634 27365 ft 428 kts 283°
2026-04-18 06:44 33.59353 -113.56128 27670 ft 430 kts 283°
2026-04-18 06:44 33.60003 -113.59595 27985 ft 431 kts 283°
2026-04-18 06:44 33.60667 -113.63137 28409 ft 429 kts 283°
2026-04-18 06:45 33.61318 -113.66625 28888 ft 426 kts 283°
2026-04-18 06:45 33.61960 -113.70072 29361 ft 424 kts 283°
2026-04-18 06:45 33.62593 -113.73490 29756 ft 423 kts 283°
2026-04-18 06:45 33.63239 -113.76981 30109 ft 422 kts 283°
2026-04-18 06:46 33.63864 -113.80371 30420 ft 421 kts 283°
2026-04-18 06:46 33.64495 -113.83788 30752 ft 420 kts 283°
2026-04-18 06:46 33.65126 -113.87216 31041 ft 420 kts 283°
2026-04-18 06:46 33.65757 -113.90637 31307 ft 420 kts 283°
2026-04-18 06:47 33.66387 -113.94053 31599 ft 419 kts 283°
2026-04-18 06:47 33.67015 -113.97467 31918 ft 418 kts 283°
2026-04-18 06:47 33.67641 -114.00878 31982 ft 422 kts 283°
2026-04-18 06:48 33.68897 -114.07749 31992 ft 423 kts 283°
2026-04-18 06:48 33.70146 -114.14608 31985 ft 417 kts 283°
2026-04-18 06:49 33.71388 -114.21451 32000 ft 417 kts 283°
2026-04-18 06:49 33.72621 -114.28267 31995 ft 418 kts 283°
2026-04-18 06:50 33.73853 -114.35102 32001 ft 418 kts 283°
2026-04-18 06:50 33.75078 -114.41927 32008 ft 419 kts 283°
2026-04-18 06:51 33.76305 -114.48784 32007 ft 420 kts 283°
2026-04-18 06:51 33.77428 -114.55504 32011 ft 421 kts 277°
2026-04-18 06:52 33.77868 -114.62502 32024 ft 421 kts 275°
2026-04-18 06:52 33.78229 -114.69556 32020 ft 422 kts 275°
2026-04-18 06:53 33.78609 -114.76561 32019 ft 423 kts 275°
2026-04-18 06:53 33.79005 -114.83614 32020 ft 423 kts 275°
2026-04-18 06:54 33.79403 -114.90680 32018 ft 423 kts 275°
2026-04-18 06:54 33.79798 -114.97744 32013 ft 424 kts 275°
2026-04-18 06:55 33.80182 -115.04684 32013 ft 424 kts 275°
2026-04-18 06:55 33.80504 -115.10580 32014 ft 424 kts 275°
2026-04-18 06:56 33.80885 -115.17623 32017 ft 424 kts 275°
2026-04-18 06:56 33.81266 -115.24728 32015 ft 424 kts 275°
2026-04-18 06:57 33.81638 -115.31764 32018 ft 424 kts 275°
2026-04-18 06:57 33.82197 -115.42427 32020 ft 424 kts 276°
2026-04-18 06:58 33.83442 -115.49298 32015 ft 421 kts 292°
2026-04-18 06:58 33.85592 -115.55842 32027 ft 421 kts 292°
2026-04-18 06:59 33.87732 -115.62351 32028 ft 421 kts 292°
2026-04-18 06:59 33.89881 -115.68975 32032 ft 422 kts 292°
2026-04-18 07:00 33.91998 -115.75564 32027 ft 422 kts 292°
2026-04-18 07:00 33.94108 -115.82158 32032 ft 422 kts 292°
2026-04-18 07:01 33.96095 -115.88382 32027 ft 422 kts 292°
2026-04-18 07:01 33.98068 -115.94575 32031 ft 422 kts 292°
2026-04-18 07:02 34.00166 -116.01175 32059 ft 422 kts 292°
2026-04-18 07:02 34.02264 -116.07787 32082 ft 422 kts 292°
2026-04-18 07:03 34.04361 -116.14410 32100 ft 422 kts 292°
2026-04-18 07:03 34.06450 -116.21022 32107 ft 422 kts 292°
2026-04-18 07:04 34.08539 -116.27650 32121 ft 422 kts 292°
2026-04-18 07:04 34.10605 -116.34221 32108 ft 422 kts 292°
2026-04-18 07:05 34.12703 -116.40905 32111 ft 422 kts 292°
2026-04-18 07:05 34.14782 -116.47547 32088 ft 422 kts 292°
2026-04-18 07:06 34.16851 -116.54168 32074 ft 422 kts 292°
2026-04-18 07:06 34.18900 -116.60739 32073 ft 421 kts 292°
2026-04-18 07:07 34.20963 -116.67373 32074 ft 421 kts 292°
2026-04-18 07:07 34.23019 -116.73996 32067 ft 421 kts 292°
2026-04-18 07:08 34.25073 -116.80629 32071 ft 421 kts 292°
2026-04-18 07:08 34.27121 -116.87257 32064 ft 421 kts 292°
2026-04-18 07:09 34.29160 -116.93873 32072 ft 420 kts 292°
2026-04-18 07:09 34.31200 -117.00505 32066 ft 420 kts 292°
2026-04-18 07:10 34.33236 -117.07137 32073 ft 420 kts 292°
2026-04-18 07:10 34.35265 -117.13764 32062 ft 420 kts 291°
2026-04-18 07:11 34.37295 -117.20408 32103 ft 420 kts 291°
2026-04-18 07:11 34.39318 -117.27044 32116 ft 421 kts 291°
2026-04-18 07:12 34.41327 -117.33650 32134 ft 420 kts 291°
2026-04-18 07:12 34.43356 -117.40336 32153 ft 420 kts 291°
2026-04-18 07:13 34.45369 -117.46986 32148 ft 420 kts 291°
2026-04-18 07:13 34.47357 -117.53568 32144 ft 420 kts 291°
2026-04-18 07:14 34.49371 -117.60249 32132 ft 420 kts 291°
2026-04-18 07:14 34.51371 -117.66902 32116 ft 420 kts 291°
2026-04-18 07:15 34.53372 -117.73572 32103 ft 420 kts 291°
2026-04-18 07:15 34.55361 -117.80219 32111 ft 420 kts 291°
2026-04-18 07:16 34.57358 -117.86910 32132 ft 420 kts 291°
2026-04-18 07:16 34.59341 -117.93572 32147 ft 420 kts 291°
2026-04-18 07:17 34.61312 -118.00201 32156 ft 419 kts 291°
2026-04-18 07:17 34.63593 -118.06678 32150 ft 417 kts 302°
2026-04-18 07:18 34.66607 -118.11521 32168 ft 415 kts 311°
2026-04-18 07:18 34.70364 -118.16845 32150 ft 415 kts 311°
2026-04-18 07:19 34.73993 -118.22028 32161 ft 415 kts 311°
2026-04-18 07:19 34.77708 -118.27384 32154 ft 414 kts 310°
2026-04-18 07:20 34.81416 -118.32755 32159 ft 414 kts 310°
2026-04-18 07:20 34.85113 -118.38120 32154 ft 414 kts 310°
2026-04-18 07:21 34.88800 -118.43481 32140 ft 410 kts 310°
2026-04-18 07:21 34.90592 -118.46089 32141 ft 395 kts 310°
2026-04-18 07:21 34.92326 -118.48614 32146 ft 382 kts 310°
2026-04-18 07:22 34.95720 -118.53562 31992 ft 380 kts 310°
2026-04-18 07:22 34.97412 -118.56030 31756 ft 374 kts 310°
2026-04-18 07:22 34.99041 -118.58392 31387 ft 371 kts 313°
2026-04-18 07:23 35.00945 -118.60521 31053 ft 367 kts 323°
2026-04-18 07:23 35.03073 -118.62244 30596 ft 368 kts 330°
2026-04-18 07:23 35.05359 -118.63547 30218 ft 367 kts 338°
2026-04-18 07:23 35.07776 -118.64642 29779 ft 365 kts 339°
2026-04-18 07:24 35.10007 -118.65612 29414 ft 363 kts 339°
2026-04-18 07:24 35.10819 -118.65963 29272 ft 362 kts 339°
2026-04-18 07:24 35.11930 -118.66443 29091 ft 360 kts 339°
2026-04-18 07:24 35.14282 -118.67463 28728 ft 357 kts 339°
2026-04-18 07:25 35.16610 -118.68481 28343 ft 354 kts 339°
2026-04-18 07:25 35.18914 -118.69496 27983 ft 351 kts 339°
2026-04-18 07:25 35.21207 -118.70511 27616 ft 349 kts 339°
2026-04-18 07:25 35.23481 -118.71522 27238 ft 347 kts 339°
2026-04-18 07:26 35.25661 -118.72493 26905 ft 345 kts 338°
2026-04-18 07:26 35.27886 -118.73485 26551 ft 343 kts 338°
2026-04-18 07:26 35.30139 -118.74492 26168 ft 341 kts 338°
2026-04-18 07:26 35.32363 -118.75486 25818 ft 339 kts 338°
2026-04-18 07:27 35.34553 -118.76466 25472 ft 338 kts 338°
2026-04-18 07:27 35.36757 -118.77453 25122 ft 336 kts 338°
2026-04-18 07:27 35.38978 -118.78448 24781 ft 335 kts 338°
2026-04-18 07:27 35.41109 -118.79404 24431 ft 335 kts 338°
2026-04-18 07:28 35.43323 -118.80397 24089 ft 334 kts 338°
2026-04-18 07:28 35.45500 -118.81375 23724 ft 334 kts 338°
2026-04-18 07:28 35.47676 -118.82352 23352 ft 333 kts 338°
2026-04-18 07:28 35.49820 -118.83315 22981 ft 331 kts 338°
2026-04-18 07:29 35.52009 -118.84300 22627 ft 329 kts 338°
2026-04-18 07:29 35.54150 -118.85263 22276 ft 328 kts 338°
2026-04-18 07:29 35.56292 -118.86227 21941 ft 326 kts 338°
2026-04-18 07:29 35.58417 -118.87184 21611 ft 324 kts 338°
2026-04-18 07:30 35.60526 -118.88135 21277 ft 322 kts 338°
2026-04-18 07:30 35.62611 -118.89075 20942 ft 321 kts 338°
2026-04-18 07:30 35.64716 -118.90025 20616 ft 319 kts 338°
2026-04-18 07:30 35.66771 -118.90953 20296 ft 318 kts 338°
2026-04-18 07:31 35.68847 -118.91891 19971 ft 317 kts 338°
2026-04-18 07:31 35.70913 -118.92824 19653 ft 316 kts 338°
2026-04-18 07:31 35.72951 -118.93747 19332 ft 315 kts 338°
2026-04-18 07:31 35.75008 -118.94678 19009 ft 314 kts 338°
2026-04-18 07:32 35.77055 -118.95605 18678 ft 314 kts 338°
2026-04-18 07:32 35.79103 -118.96533 18337 ft 314 kts 338°
2026-04-18 07:32 35.81159 -118.97466 17971 ft 313 kts 338°
2026-04-18 07:32 35.83185 -118.98386 17602 ft 313 kts 338°
2026-04-18 07:33 35.85218 -118.99309 17235 ft 313 kts 338°
2026-04-18 07:33 35.87283 -119.00247 16903 ft 311 kts 338°
2026-04-18 07:33 35.89311 -119.01167 16579 ft 310 kts 338°
2026-04-18 07:33 35.91326 -119.02082 16258 ft 309 kts 338°
2026-04-18 07:34 35.93356 -119.03028 15774 ft 313 kts 338°
2026-04-18 07:34 35.95389 -119.03991 15379 ft 315 kts 338°
2026-04-18 07:34 35.97392 -119.04945 14978 ft 317 kts 338°
2026-04-18 07:34 35.99493 -119.05946 14623 ft 316 kts 338°
2026-04-18 07:35 36.01545 -119.06924 14296 ft 315 kts 338°
2026-04-18 07:35 36.03593 -119.07900 13973 ft 314 kts 338°
2026-04-18 07:35 36.05598 -119.08856 13620 ft 313 kts 338°
2026-04-18 07:35 36.07626 -119.09822 13274 ft 312 kts 338°
2026-04-18 07:36 36.09645 -119.10785 12949 ft 310 kts 338°
2026-04-18 07:36 36.11650 -119.11741 12627 ft 308 kts 338°
2026-04-18 07:36 36.13640 -119.12691 12312 ft 306 kts 338°
2026-04-18 07:36 36.15622 -119.13637 11995 ft 304 kts 338°
2026-04-18 07:37 36.17587 -119.14576 11679 ft 302 kts 338°
2026-04-18 07:37 36.19546 -119.15513 11375 ft 301 kts 338°
2026-04-18 07:37 36.21492 -119.16443 11066 ft 299 kts 338°
2026-04-18 07:37 36.23425 -119.17368 10756 ft 298 kts 338°
2026-04-18 07:38 36.25363 -119.18296 10449 ft 297 kts 339°
2026-04-18 07:38 36.27286 -119.19217 10203 ft 294 kts 339°
2026-04-18 07:38 36.29161 -119.20116 10067 ft 286 kts 339°
2026-04-18 07:38 36.31010 -119.21003 9789 ft 284 kts 339°
2026-04-18 07:39 36.32819 -119.21870 9491 ft 283 kts 339°
2026-04-18 07:39 36.34679 -119.22763 9188 ft 282 kts 339°
2026-04-18 07:39 36.36507 -119.23642 8890 ft 280 kts 339°
2026-04-18 07:39 36.38320 -119.24513 8599 ft 279 kts 339°
2026-04-18 07:40 36.40111 -119.25375 8308 ft 278 kts 339°
2026-04-18 07:40 36.41939 -119.26254 8018 ft 278 kts 339°
2026-04-18 07:40 36.43702 -119.27103 7731 ft 277 kts 339°
2026-04-18 07:40 36.44908 -119.27685 7538 ft 277 kts 339°
2026-04-18 07:41 36.46715 -119.28556 7248 ft 276 kts 338°
2026-04-18 07:41 36.48512 -119.29423 6959 ft 276 kts 338°
2026-04-18 07:41 36.50879 -119.30564 6571 ft 276 kts 338°
2026-04-18 07:41 36.52676 -119.31430 6273 ft 276 kts 339°
2026-04-18 07:42 36.54459 -119.32325 5960 ft 276 kts 332°
2026-04-18 07:42 36.55871 -119.33737 5677 ft 273 kts 311°
2026-04-18 07:42 36.56717 -119.34941 5519 ft 270 kts 308°
2026-04-18 07:42 36.57806 -119.36692 5453 ft 255 kts 305°
2026-04-18 07:43 36.58826 -119.38459 5336 ft 242 kts 304°
2026-04-18 07:43 36.59753 -119.40102 5219 ft 228 kts 304°
2026-04-18 07:43 36.60662 -119.41714 4922 ft 222 kts 304°
2026-04-18 07:43 36.61535 -119.43263 4548 ft 220 kts 304°
2026-04-18 07:44 36.62421 -119.44830 4205 ft 216 kts 305°
2026-04-18 07:44 36.63214 -119.46232 3991 ft 207 kts 305°
2026-04-18 07:44 36.63959 -119.47549 3838 ft 201 kts 305°
2026-04-18 07:44 36.64760 -119.48964 3762 ft 203 kts 305°
2026-04-18 07:45 36.65586 -119.50425 3687 ft 208 kts 305°
2026-04-18 07:45 36.66409 -119.51878 3605 ft 205 kts 305°
2026-04-18 07:45 36.67228 -119.53324 3402 ft 201 kts 305°
2026-04-18 07:45 36.68017 -119.54717 3152 ft 191 kts 305°
2026-04-18 07:46 36.68763 -119.56034 2945 ft 184 kts 305°
2026-04-18 07:46 36.69509 -119.57351 2863 ft 187 kts 306°
2026-04-18 07:46 36.70270 -119.58692 2617 ft 191 kts 306°
2026-04-18 07:46 36.71028 -119.60031 2391 ft 187 kts 306°
2026-04-18 07:47 36.71772 -119.61343 2128 ft 180 kts 306°
2026-04-18 07:47 36.72464 -119.62563 1895 ft 164 kts 306°
2026-04-18 07:47 36.73087 -119.63662 1716 ft 150 kts 306°
2026-04-18 07:47 36.73686 -119.64715 1492 ft 150 kts 306°
2026-04-18 07:48 36.74277 -119.65758 1290 ft 148 kts 306°
2026-04-18 07:48 36.74875 -119.66810 1078 ft 145 kts 306°
2026-04-18 07:48 36.75455 -119.67833 883 ft 144 kts 306°
2026-04-18 07:48 36.76022 -119.68833 688 ft 143 kts 306°
2026-04-18 07:49 36.76598 -119.69847 503 ft 141 kts 306°
2026-04-18 07:49 36.77166 -119.70847 336 ft 138 kts 306°
2026-04-18 07:49 36.77653 -119.71701 339 ft 101 kts 306°
2026-04-18 07:49 36.77958 -119.72306 336 ft 71 kts 305°
2026-04-18 07:50 36.78194 -119.72680 336 ft 32 kts 319°
2026-04-18 07:50 36.78297 -119.72826 339 ft 26 kts 322°
2026-04-18 07:50 36.78369 -119.72971 336 ft 22 kts 284°
2026-04-18 07:50 36.78318 -119.73058 337 ft 12 kts 217°
2026-04-18 07:51 36.78245 -119.73119 336 ft 12 kts 214°
2026-04-18 07:51 36.78176 -119.73181 339 ft 12 kts 205°
2026-04-18 07:51 36.78107 -119.73141 338 ft 12 kts 129°
2026-04-18 07:51 36.78055 -119.73058 340 ft 12 kts 125°
2026-04-18 07:52 36.78008 -119.72975 338 ft 12 kts 125°
2026-04-18 07:52 36.77961 -119.72892 340 ft 12 kts 125°
2026-04-18 07:52 36.77912 -119.72805 338 ft 12 kts 125°
2026-04-18 07:52 36.77862 -119.72717 335 ft 13 kts 125°
2026-04-18 07:53 36.77809 -119.72623 339 ft 13 kts 125°
2026-04-18 07:53 36.77753 -119.72524 335 ft 14 kts 125°
2026-04-18 07:53 36.77695 -119.72424 339 ft 15 kts 125°
2026-04-18 07:53 36.77637 -119.72322 339 ft 14 kts 126°
2026-04-18 07:54 36.77580 -119.72222 339 ft 14 kts 126°
2026-04-18 07:54 36.77522 -119.72123 339 ft 14 kts 126°
2026-04-18 07:54 36.77464 -119.72030 338 ft 14 kts 141°
2026-04-18 07:54 36.77379 -119.71979 336 ft 13 kts 156°
2026-04-18 07:55 36.77297 -119.71948 337 ft 9 kts 176°
2026-04-18 07:55 36.77247 -119.71952 338 ft 7 kts 174°
2026-04-18 07:55 36.77206 -119.71921 338 ft 6 kts 141°
2026-04-18 07:55 36.77193 -119.71907 336 ft 0 kts 137°